Lake Louise, Alberta

10:01 AM MST on November 22, 2017 (GMT -0700)
Lake Louise

Weather History for 71786 - January, 2013

Change the Weather History Date:

Thursday, January 31, 2013

  Actual Average Record
Temperature  
Mean Temperature 23 °F -  
Max Temperature 25 °F - - ()
Min Temperature 21 °F - - ()
Degree Days  
Heating Degree Days 42    
Moisture  
Dew Point 22 °F    
Average Humidity 94    
Maximum Humidity 97    
Minimum Humidity 88    
Precipitation  
Precipitation 0.00 in - - ()
Sea Level Pressure  
Sea Level Pressure 30.16 in    
Wind  
Wind Speed 14 mph ()    
Max Wind Speed 20 mph    
Max Gust Speed -    
T = Trace of Precipitation, MM = Missing Value Source: Averaged Metar Reports

Daily Weather History Graph

Daily Weather History Graph

Search for Another Location

Airport or City:

Trip Planner

Search our weather history database for the weather conditions in past years. The results will help you decide how hot, cold, wet, or windy it might be!

Date:

Astronomy

Jan. 31, 2013 Rise Set
Actual Time 8:24 AM MST 5:34 PM MST
Civil Twilight 7:48 AM MST 6:10 PM MST
Nautical Twilight 7:07 AM MST 6:50 PM MST
Astronomical Twilight 6:28 AM MST 7:29 PM MST
Moon 11:25 PM MST (1/31) 9:46 AM MST (1/31)
Length of Visible Light 10h 22m
Length of Day
9h 09m
Waning Gibbous, 79% of the Moon is Illuminated
Jan 31
Waning Gibbous
Feb 3
Last Quarter
Feb 10
New
Feb 17
First Quarter
Feb 25
Full

Hourly Weather History & Observations

Time (MST) Temp. Windchill Dew Point Humidity Pressure Visibility Wind Dir Wind Speed Gust Speed Precip Events Conditions
12:00 AM 21.2 °F 7.8 °F 19.4 °F 93% 30.18 in - WSW 15.0 mph - N/A   Unknown
1:00 AM 21.4 °F 8.0 °F 19.8 °F 93% 30.19 in - WSW 15.0 mph - N/A   Unknown
2:00 AM 21.4 °F 8.5 °F 19.8 °F 93% 30.19 in - WSW 13.8 mph - N/A   Unknown
3:00 AM 21.4 °F 8.0 °F 19.8 °F 93% 30.19 in - WSW 15.0 mph - N/A   Unknown
4:00 AM 21.4 °F 9.1 °F 19.8 °F 93% 30.19 in - WSW 12.7 mph - N/A   Unknown
5:00 AM 22 °F - 20 °F 88% 30.19 in - WSW 11.5 mph - -  
5:00 AM 21.6 °F 9.9 °F 19.9 °F 93% 30.19 in - WSW 11.5 mph - N/A   Unknown
6:00 AM 21.4 °F 8.5 °F 19.8 °F 93% 30.19 in - WSW 13.8 mph - N/A   Unknown
7:00 AM 21.6 °F 9.9 °F 19.9 °F 93% 30.19 in - WSW 11.5 mph - N/A   Unknown
8:00 AM 21.7 °F 9.6 °F 20.1 °F 93% 30.19 in - WSW 12.7 mph - N/A   Unknown
9:00 AM 22.3 °F 9.7 °F 21.0 °F 95% 30.19 in - WSW 13.8 mph - N/A   Unknown
10:00 AM 23.0 °F 9.2 °F 21.6 °F 94% 30.19 in - WSW 17.3 mph - N/A   Unknown
11:00 AM 23 °F - 22 °F 94% 30.19 in - WSW 17.3 mph - -  
11:00 AM 23.4 °F 9.6 °F 21.9 °F 94% 30.19 in - WSW 17.3 mph - N/A   Unknown
12:00 PM 23.9 °F 9.9 °F 22.3 °F 94% 30.18 in - WSW 18.4 mph - N/A   Unknown
1:00 PM 24.8 °F 10.7 °F 23.2 °F 94% 30.17 in - WSW 19.6 mph - N/A   Unknown
2:00 PM 25.2 °F 11.2 °F 23.7 °F 94% 30.16 in - West 19.6 mph - N/A   Unknown
3:00 PM 25.5 °F 12.4 °F 24.3 °F 95% 30.14 in - West 17.3 mph - N/A   Unknown
4:00 PM 25.5 °F 12.4 °F 24.4 °F 96% 30.13 in - West 17.3 mph - N/A   Unknown
5:00 PM 25 °F - 24 °F 95% 30.13 in - West 17.3 mph - -  
5:00 PM 25.2 °F 12.0 °F 24.1 °F 96% 30.13 in - West 17.3 mph - N/A   Unknown
6:00 PM 25.0 °F 11.7 °F 24.1 °F 96% 30.14 in - West 17.3 mph - N/A   Unknown
7:00 PM 25.0 °F 11.7 °F 24.1 °F 96% 30.12 in - West 17.3 mph - N/A   Unknown
8:00 PM 25.3 °F 12.2 °F 24.4 °F 96% 30.11 in - West 17.3 mph - N/A   Unknown
9:00 PM 25.3 °F 13.1 °F 24.4 °F 96% 30.11 in - West 15.0 mph - N/A   Unknown
10:00 PM 25.3 °F 12.6 °F 24.4 °F 96% 30.12 in - WSW 16.1 mph - N/A   Unknown
11:00 PM 25 °F - 24 °F 97% 30.12 in - West 15.0 mph - -  
11:00 PM 25.3 °F 13.1 °F 24.4 °F 96% 30.12 in - West 15.0 mph - N/A   Unknown